Location: Bode?ti
(46.4667°N, 22.8500°E)
Time: 00:34:43
(UTC+00:00)

Daily predictions for brighter satellites

Satellite Brightness Start Highest point End
(mag) Time Altitude Azimuth Time Altitude Azimuth Time Altitude Azimuth
CENTAUR R/B 4.0 01:57:13 32° NE 01:57:13 32° NE 02:01:01 10° NE
Cosmos 2344 3.8 02:24:42 59° NNE 02:24:42 59° NNE 02:31:03 10° NE
NOSS 3-2 (C) 4.4 02:25:21 42° NE 02:25:21 42° NE 02:29:38 10° NE
USA 238 DEB 3.7 02:52:05 65° N 02:52:05 65° N 02:58:05 10° NE
USA 238 3.7 02:52:10 65° N 02:52:10 65° N 02:58:11 10° NE
Cosmos 2369 Rocket 2.5 02:52:23 62° ESE 02:52:25 62° ESE 02:57:57 10° NNE
USA 215 3.7 02:51:55 10° E 02:58:11 52° NNE 02:59:29 46° NNW
Cosmos 1656 Rocket 4.3 02:56:24 31° SSE 02:58:40 50° ESE 03:03:55 10° NE
COSMO-SKYMED 1 3.8 03:00:47 10° SE 03:04:48 39° ENE 03:05:39 35° NE
Cosmos 1943 Rocket 3.4 03:12:50 30° N 03:12:50 30° N 03:15:50 10° NNE
CZ-2C R/B 3.3 03:06:50 10° SE 03:12:08 54° ENE 03:16:08 17° N
Gblst 52 Del rocket 4.4 03:13:02 61° NNW 03:13:16 62° NNW 03:19:56 10° ENE
Cosmos 1634 Rocket 3.8 03:13:25 32° NNW 03:16:32 84° W 03:22:44 10° S
Cosmos 1862 4.4 03:25:57 10° S 03:31:23 35° NNE 03:33:49 10° NNE
Tsikada Rocket 4.2 03:31:33 48° NW 03:31:33 48° NW 03:36:52 10° N
Landsat 5 4.1 03:28:53 10° SSE 03:33:18 58° ENE 03:36:00 22° N
SJ 16-02 3.6 03:31:18 10° SSE 03:34:55 26° E 03:38:32 10° NE
MOS 1-B Rocket 3.8 03:34:02 10° S 03:40:12 67° WSW 03:43:22 27° NNW
Cosmos 836 Rocket 4.5 03:40:51 56° W 03:41:12 57° WSW 03:46:17 10° S
CENTAUR R/B 3.2 03:44:24 36° NW 03:45:18 37° NNW 03:52:06 10° NE
Cosmos 2180 Rocket 4.4 03:43:16 10° N 03:49:29 87° E 03:55:37 10° S
CZ-4C R/B 3.2 03:49:16 10° SSE 03:52:21 59° ENE 03:52:58 46° NNE
SKYMED 2 3.4 03:48:28 10° S 03:52:47 69° WSW 03:54:15 40° NNW
Cosmos 783 Rocket 4.5 03:50:43 23° NNW 03:54:05 84° ENE 03:59:18 10° SSE
SJ-12 3.8 03:50:27 10° N 03:54:34 67° WNW 03:58:40 10° SSW
ATLAS 5 CENTAUR R/B 2.7 03:54:14 10° S 03:57:46 39° ESE 04:01:42 10° NE
Cosmos 1503 Rocket 3.9 03:53:02 10° SSW 03:58:19 76° WNW 04:03:41 10° NNE
Meteor 1-27 Rocket 4.1 03:53:20 10° N 03:58:58 64° ENE 04:04:42 10° SSE
CZ-4B R/B 4.3 04:01:13 10° NNE 04:04:31 34° E 04:07:50 10° SSE
Cosmos 1151 Rocket 3.6 04:05:31 35° WSW 04:05:31 35° WSW 04:09:03 10° SSW
Cosmos 1486 Rocket 4.4 04:03:40 31° WSW 04:05:28 41° WNW 04:10:28 10° N
H-2A R/B 3.3 04:02:51 10° SE 04:06:52 40° ENE 04:10:59 10° N
FALCON 9 DEB 4.5 04:08:48 21° NNE 04:08:48 21° NNE 04:10:52 10° ENE
SL-8 R/B 4.1 04:07:03 34° W 04:08:40 48° SSW 04:13:15 10° SE
Cosmos 773 Rocket 3.9 04:04:51 18° NNW 04:08:48 82° WSW 04:13:58 10° SSE
Meteor 2-6 Rocket 4.3 04:05:33 18° NNW 04:09:17 49° W 04:14:27 10° SSW
Lacrosse 4 Rocket 4.1 04:12:15 10° NNE 04:13:49 12° NNE 04:15:24 10° NE
NOSS 3-2 (C) 4.2 04:12:49 27° WNW 04:14:46 32° NNW 04:20:47 10° NNE
ATLAS 3B R/B 3.3 04:08:53 10° SSW 04:15:12 56° ESE 04:21:50 10° NE
Okean 3 Rocket 4.0 04:13:34 10° SW 04:17:51 41° WNW 04:22:10 10° N
Cosmos 1340 Rocket 3.3 04:15:13 10° S 04:19:07 62° E 04:23:05 10° NNE
Cosmos 1766 Rocket 4.1 04:17:05 10° SW 04:20:59 33° WNW 04:24:56 10° N
DMSP B5D2-2 4.0 04:17:13 10° SSE 04:22:26 88° ENE 04:27:40 10° NNW
SL-27 R/B 2.5 04:21:23 29° NW 04:22:58 58° WSW 04:26:26 10° S
Envisat 3.3 04:18:37 10° N 04:23:24 42° WNW 04:28:09 10° SW
NOSS 2 (A) 4.2 04:22:51 41° NNW 04:23:38 73° NE 04:26:04 10° SE
Cosmos 1328 Rocket 4.3 04:25:33 25° NW 04:27:01 30° W 04:30:50 10° SSW
Cosmos 158 Rocket 4.2 04:25:18 10° NNW 04:30:26 72° ENE 04:35:41 10° SSE
Cosmos 2297 Rocket 3.5 04:27:02 10° NNW 04:32:16 36° NE 04:37:28 10° ESE
FALCON 9 DEB 4.3 04:31:43 20° NNW 04:32:26 22° N 04:34:46 10° ENE
Cosmos 2098 Rocket 4.3 04:32:19 17° WSW 04:34:29 24° WNW 04:38:43 10° NNW
Cosmos 1174 2.9 04:33:18 10° SW 04:36:15 86° WNW 04:39:25 10° NE
Cosmos 2369 Rocket 3.1 04:34:16 18° W 04:36:53 26° NW 04:41:31 10° N
Cosmos 1939 Rocket 3.2 04:34:41 10° NNE 04:38:36 66° E 04:42:26 10° S
Cosmos 1607 4.2 04:32:52 11° NNW 04:38:59 67° NE 04:45:07 10° SE
BREEZE-M DEB (TANK) 4.4 04:31:11 16° WNW 04:40:55 57° SW 04:44:50 10° SE
COSMO-SKYMED 1 3.8 04:37:40 10° SW 04:41:06 22° W 04:42:51 18° WNW
USA 215 3.4 04:34:37 10° SE 04:41:06 67° SW 04:46:50 14° WNW
Meteor 2-15 Rocket 4.5 04:35:33 10° NNW 04:41:29 56° W 04:47:23 10° S
FALCON 9 DEB 4.5 04:40:34 19° NW 04:42:05 26° N 04:45:00 10° ENE
Cosmos 1656 Rocket 4.4 04:37:56 11° WSW 04:42:29 29° NW 04:47:14 10° N
H-2A R/B 4.4 04:40:47 10° NNW 04:46:54 - WSW 04:42:13 16° NW
Meteor 1-31 Rocket 3.7 04:40:48 10° N 04:44:05 26° WNW 04:47:20 10° SW
Alouette 2 Rocket 3.1 04:44:16 10° NNW 04:47:59 69° W 04:51:34 10° S
BREEZE-M DEB (TANK) 3.2 04:37:17 10° WSW 04:48:00 78° SSE 04:51:11 10° ENE
SL-4 R/B 4.2 04:47:10 10° SSW 04:50:04 24° SE 04:53:09 10° E
IRAS Rocket 4.4 04:46:01 10° S 04:51:22 52° WSW 04:56:44 10° NNW
CZ-4B R/B 1.9 04:48:49 10° SSE 04:52:05 57° ENE 04:55:18 10° N
CZ-2C R/B 3.8 04:48:25 10° SW 04:52:43 23° W 04:56:58 10° NW
Nadezhda 4 Rocket 4.1 04:47:01 10° SSW 04:53:01 54° WNW 04:59:10 10° N
Cosmos 1408 Rocket 4.2 04:49:38 10° SW 04:53:29 31° WNW 04:57:21 10° N
Okean 1 3.7 04:49:55 10° N 04:53:53 67° E 04:57:48 10° SSE
Cosmos 1943 Rocket 4.0 04:54:23 11° NW 04:55:36 12° NW 04:57:40 10° NNW
NOAA 12 4.0 04:52:22 10° N 04:57:38 73° WNW 05:02:50 10° SSW
FengYun 1-2 T 4.2 04:52:20 10° NNE 04:57:52 89° WNW 05:03:21 10° SSW
CZ-2D R/B 4.2 04:54:54 10° NNE 04:58:37 50° E 05:02:18 10° S
Geosat FO 4.4 04:59:14 10° SSE 05:02:31 66° WSW 05:05:51 10° NNW
Cosmos 1743 Rocket 3.8 04:58:57 10° SSW 05:03:10 45° WNW 05:07:22 10° N
Cosmos 2228 Rocket 3.2 05:00:09 10° NNW 05:04:37 62° W 05:09:05 10° S
CORIOLIS 4.4 04:59:11 10° NNE 05:04:40 77° ESE 05:10:06 10° S
Lacrosse 5 4.5 05:01:37 10° S 05:05:43 25° SE 05:09:51 10° ENE
Cosmos 2227 Rocket 3.1 05:02:43 10° NNW 05:08:12 47° ENE 05:13:37 10° SE
Cosmos 1428 Rocket 4.4 05:04:24 10° SSW 05:10:32 75° W 05:16:41 10° N
Cosmos 1092 Rocket 4.0 05:04:20 10° SSW 05:10:33 67° W 05:16:52 10° N
ADEOS 4.2 05:07:36 10° N 05:12:14 33° WNW 05:16:52 10° SW
SJ 16-02 1.9 05:09:21 10° SW 05:13:20 34° WNW 05:17:21 10° N
Cosmos 1666 Rocket 4.1 05:09:57 10° S 05:14:23 65° E 05:18:50 10° NNE
Meteor 1-20 Rocket 4.3 05:08:53 10° SSW 05:14:24 60° WNW 05:20:03 10° N
Meteor 1-19 Rocket 4.2 05:11:49 10° NNW 05:17:24 69° W 05:22:47 10° S
Cosmos 1656 4.3 05:13:32 10° S 05:18:51 61° ESE 05:24:13 10° NNE
BREEZE-M DEB (TANK) 4.1 05:17:02 10° WNW 05:20:45 75° NNE 05:33:46 10° ESE
CZ-4B DEB 4.3 05:15:18 10° NNE 05:20:48 84° ESE 05:26:15 10° SSW
Cosmos 1602 4.2 05:19:08 10° SW 05:22:42 38° WNW 05:26:18 10° N
Timation 1 Rocket 4.5 05:18:08 10° NNW 05:24:09 85° ENE 05:30:07 10° SSE
